GW5111 Weather Reports


time (UTC)temp
C
wind
direction
speed
KPH
gust
KPH
rain 1hr
cm
rain 24hr
cm
rain mn
cm
humidity
%
barometer
mb
20260503022126 2 323 8.0 11.3 0.00 0.00 0.00 73 1015.1
20260503021623 2 319 8.0 11.3 0.00 0.00 0.00 73 1015.3
20260503021120 2 343 6.4 11.3 0.00 0.00 0.00 72 1015.1
20260503020617 2 333 6.4 9.7 0.00 0.00 0.00 72 1015.0
20260503020114 2 353 6.4 11.3 0.00 0.00 0.00 72 1015.0
20260503015611 2 296 8.0 11.3 0.00 0.00 0.00 73 1015.0
20260503015108 2 308 3.2 9.7 0.00 0.00 0.00 72 1015.1
20260503014603 2 329 3.2 6.4 0.00 0.00 0.00 72 1015.1
20260503014102 2 347 4.8 11.3 0.00 0.00 0.00 71 1015.0
20260503013558 2 334 9.7 12.9 0.00 0.00 0.00 71 1015.0
20260503013056 2 330 8.0 9.7 0.00 0.00 0.00 72 1015.0
20260503012554 2 8 6.4 9.7 0.00 0.00 0.00 71 1015.0
20260503012050 2 1 4.8 9.7 0.00 0.00 0.00 71 1014.7
20260503011546 2 314 3.2 6.4 0.00 0.00 0.00 71 1014.8
20260503011044 3 320 4.8 6.4 0.00 0.00 0.00 70 1014.8
20260503010540 3 352 6.4 11.3 0.00 0.00 0.00 69 1014.7
20260503010038 3 347 4.8 6.4 0.00 0.00 0.00 69 1014.5
20260503005534 3 302 6.4 9.7 0.00 0.00 0.00 70 1014.6
20260503005032 3 343 3.2 6.4 0.00 0.00 0.00 69 1014.5
20260503004528 3 30 4.8 11.3 0.00 0.00 0.00 68 1014.4
20260503004026 3 46 6.4 11.3 0.00 0.00 0.00 68 1014.5
20260503003522 3 17 6.4 6.4 0.00 0.00 0.00 67 1014.7
20260503003020 3 356 9.7 16.1 0.00 0.00 0.00 66 1014.5
20260503002517 3 2 4.8 9.7 0.00 0.00 0.00 66 1014.5
20260503002013 4 353 6.4 9.7 0.00 0.00 0.00 65 1014.4
20260503001510 4 353 9.7 14.5 0.00 0.00 0.00 65 1014.4
20260503001007 4 15 6.4 11.3 0.00 0.00 0.00 65 1014.4
20260503000505 4 28 6.4 9.7 0.00 0.00 0.00 63 1014.3
20260503000002 5 355 6.4 6.4 0.00 0.00 0.00 62 1014.3
20260502235458 5 354 9.7 12.9 0.00 0.00 0.00 62 1014.1
20260502234955 5 296 6.4 9.7 0.00 0.00 0.00 62 1014.3
20260502234452 5 26 8.0 12.9 0.00 0.00 0.00 61 1014.3
20260502233950 5 18 9.7 12.9 0.00 0.00 0.00 61 1014.2
20260502233450 5 7 6.4 11.3 0.00 0.00 0.00 61 1014.1
20260502232947 5 0 4.8 14.5 0.00 0.00 0.00 62 1014.2
20260502232443 5 326 11.3 12.9 0.00 0.00 0.00 60 1014.1
20260502231940 5 35 1.6 6.4 0.00 0.00 0.00 60 1013.9
20260502231437 6 346 4.8 14.5 0.00 0.00 0.00 57 1014.0
20260502230936 5 355 8.0 17.7 0.00 0.00 0.00 59 1014.0
20260502230433 5 336 8.0 9.7 0.00 0.00 0.00 62 1014.1
20260502225931 5 311 3.2 12.9 0.00 0.00 0.00 63 1014.2
20260502225427 5 353 12.9 17.7 0.00 0.00 0.00 60 1013.9
20260502224924 5 46 12.9 16.1 0.00 0.00 0.00 60 1014.0
20260502224420 6 332 6.4 12.9 0.00 0.00 0.00 60 1014.1
20260502223917 6 26 8.0 14.5 0.00 0.00 0.00 59 1013.7
20260502223415 6 25 9.7 20.9 0.00 0.00 0.00 59 1014.0
20260502222913 5 1 11.3 22.5 0.00 0.00 0.00 60 1013.9
20260502222410 5 11 4.8 14.5 0.00 0.00 0.00 62 1014.0
20260502221910 5 321 6.4 16.1 0.00 0.00 0.00 60 1014.1
20260502221408 6 14 8.0 16.1 0.00 0.00 0.00 59 1013.7
20260502220905 7 7 6.4 11.3 0.00 0.00 0.00 59 1013.9
20260502220400 6 346 9.7 16.1 0.00 0.00 0.00 60 1013.9
20260502215857 5 314 4.8 17.7 0.00 0.00 0.00 61 1014.0
20260502215355 5 347 3.2 9.7 0.00 0.00 0.00 62 1013.6
20260502214851 5 17 11.3 17.7 0.00 0.00 0.00 62 1013.9
20260502214348 5 347 9.7 12.9 0.00 0.00 0.00 61 1013.6
20260502213845 5 42 8.0 14.5 0.00 0.00 0.00 62 1013.6
20260502213342 6 39 3.2 11.3 0.00 0.00 0.00 63 1013.6
20260502212841 6 72 3.2 9.7 0.00 0.00 0.00 62 1013.7
20260502212339 6 68 4.8 16.1 0.00 0.00 0.00 60 1013.5
20260502211836 6 348 11.3 14.5 0.00 0.00 0.00 60 1013.5
20260502211331 6 42 9.7 16.1 0.00 0.00 0.00 59 1013.5
20260502210829 5 336 4.8 14.5 0.00 0.00 0.00 61 1013.5
20260502210326 6 341 8.0 12.9 0.00 0.00 0.00 60 1013.4
20260502205823 6 338 11.3 20.9 0.00 0.00 0.00 58 1013.5
20260502205319 6 333 9.7 24.1 0.00 0.00 0.00 59 1013.4
20260502204817 7 347 9.7 11.3 0.00 0.00 0.00 59 1013.9
20260502204314 6 355 9.7 17.7 0.00 0.00 0.00 58 1013.7
20260502203811 7 316 9.7 14.5 0.00 0.00 0.00 59 1013.7
20260502203309 8 327 6.4 12.9 0.00 0.00 0.00 57 1013.6
20260502202808 7 58 8.0 14.5 0.00 0.00 0.00 63 1013.6
20260502202307 7 24 9.7 14.5 0.00 0.00 0.00 61 1013.6
20260502201804 6 42 16.1 20.9 0.00 0.00 0.00 62 1013.7
20260502201300 5 21 14.5 22.5 0.00 0.00 0.00 63 1013.9
20260502200756 5 53 12.9 20.9 0.00 0.00 0.00 64 1013.9
20260502200252 5 42 9.7 14.5 0.00 0.00 0.00 63 1014.0
20260502195751 5 20 14.5 20.9 0.00 0.00 0.00 63 1013.9
20260502195247 5 344 17.7 20.9 0.00 0.00 0.00 62 1014.0
20260502194744 6 26 9.7 14.5 0.00 0.00 0.00 61 1013.9
20260502194241 7 25 11.3 20.9 0.00 0.00 0.00 61 1013.9
20260502193736 6 325 12.9 20.9 0.00 0.00 0.00 60 1013.7
20260502193234 6 287 9.7 12.9 0.00 0.00 0.00 61 1014.0
20260502192734 5 330 6.4 22.5 0.00 0.00 0.00 61 1014.1
20260502192232 5 10 14.5 25.7 0.00 0.00 0.00 60 1014.0
20260502191728 5 300 12.9 22.5 0.00 0.00 0.00 61 1014.1
20260502191226 6 348 14.5 25.7 0.00 0.00 0.00 59 1013.9
20260502190723 6 294 4.8 16.1 0.00 0.00 0.00 60 1013.7
20260502190221 6 342 12.9 25.7 0.00 0.00 0.00 58 1014.1
20260502185721 6 0 14.5 22.5 0.00 0.00 0.00 59 1014.1
20260502185218 6 343 11.3 27.4 0.00 0.00 0.00 59 1014.1
20260502184714 7 308 16.1 22.5 0.00 0.00 0.00 59 1014.3
20260502184209 8 310 14.5 16.1 0.00 0.00 0.00 59 1014.2
20260502183706 7 271 11.3 25.7 0.00 0.00 0.00 58 1014.1
20260502183202 7 295 16.1 20.9 0.00 0.00 0.00 58 1014.2
20260502182658 7 36 16.1 24.1 0.00 0.00 0.00 55 1014.1
20260502182153 7 295 9.7 14.5 0.00 0.00 0.00 58 1014.1
20260502181651 7 82 9.7 22.5 0.00 0.00 0.00 55 1014.2
20260502181150 7 342 16.1 20.9 0.00 0.00 0.00 59 1014.2
20260502180647 6 347 14.5 24.1 0.00 0.00 0.00 57 1014.2
20260502180144 7 3 12.9 20.9 0.00 0.00 0.00 58 1014.3
20260502170108 6 327 9.7 14.5 0.00 0.00 0.00 58 1014.6
20260502164054 6 300 14.5 20.9 0.00 0.00 0.00 58 1014.6
20260502163550 6 357 4.8 17.7 0.00 0.00 0.00 61 1014.8
20260502163047 6 350 14.5 16.1 0.00 0.00 0.00 57 1014.7
20260502162544 6 53 12.9 20.9 0.00 0.00 0.00 58 1014.7
20260502162041 6 32 6.4 14.5 0.00 0.00 0.00 56 1014.8
20260502161538 6 295 3.2 12.9 0.00 0.00 0.00 60 1014.7
20260502161036 6 303 11.3 14.5 0.00 0.00 0.00 57 1014.7
20260502160534 6 318 11.3 16.1 0.00 0.00 0.00 60 1014.8
20260502151941 5 53 12.9 16.1 0.00 0.00 0.00 61 1014.8
20260502151437 6 293 9.7 14.5 0.00 0.00 0.00 61 1014.6
20260502150935 6 311 9.7 16.1 0.00 0.00 0.00 64 1014.7
20260502150432 7 345 14.5 16.1 0.00 0.00 0.00 61 1014.8
20260502130317 2 6 4.8 6.4 0.00 0.00 0.00 81 1014.8
20260502123803 2 27 6.4 12.9 0.00 0.00 0.00 83 1014.6
20260502123300 2 21 4.8 9.7 0.00 0.00 0.00 84 1014.4
20260502122756 2 82 6.4 9.7 0.00 0.00 0.00 83 1014.5
20260502122253 2 20 3.2 3.2 0.00 0.00 0.00 85 1014.8
20260502121751 2 29 6.4 6.4 0.00 0.00 0.00 85 1014.6
20260502121249 2 60 4.8 9.7 0.00 0.00 0.00 86 1014.7
20260502120745 2 23 3.2 12.9 0.00 0.00 0.00 86 1014.5
20260502120242 2 12 3.2 4.8 0.00 0.00 0.00 87 1014.7
20260502115740 1 94 8.0 12.9 0.00 0.00 0.00 86 1014.5
20260502115236 1 36 3.2 6.4 0.00 0.00 0.00 88 1014.6
20260502114732 1 348 4.8 9.7 0.00 0.00 0.00 88 1014.4
20260502114229 1 25 6.4 11.3 0.00 0.00 0.00 88 1014.4
20260502113726 1 44 6.4 9.7 0.00 0.00 0.00 88 1014.4
20260502113224 1 43 4.8 11.3 0.00 0.00 0.00 89 1014.4
20260502112722 1 324 3.2 4.8 0.00 0.00 0.00 91 1014.5
20260502112220 1 61 4.8 4.8 0.00 0.00 0.00 93 1014.3
20260502111716 0 64 3.2 4.8 0.00 0.00 0.00 94 1014.4
20260502111214 0 44 1.6 4.8 0.00 0.00 0.00 94 1014.4
20260502110712 0 21 3.2 3.2 0.00 0.00 0.00 94 1014.4
20260502110209 0 22 1.6 4.8 0.00 0.00 0.00 94 1014.3
20260502105707 0 23 3.2 4.8 0.00 0.00 0.00 94 1014.4
20260502105203 0 8 3.2 3.2 0.00 0.00 0.00 94 1014.3
20260502104700 0 0 3.2 3.2 0.00 0.00 0.00 93 1014.3
20260502104158 0 21 0.0 3.2 0.00 0.00 0.00 93 1014.3
20260502103655 0 25 3.2 4.8 0.00 0.00 0.00 93 1014.1
20260502103153 0 356 1.6 4.8 0.00 0.00 0.00 93 1014.4
20260502102650 0 355 3.2 4.8 0.00 0.00 0.00 92 1014.4
20260502102146 0 358 3.2 6.4 0.00 0.00 0.00 92 1014.4
20260502101644 0 344 4.8 11.3 0.00 0.00 0.00 91 1014.3
20260502101142 1 2 4.8 4.8 0.00 0.00 0.00 91 1014.5
20260502100641 1 351 6.4 9.7 0.00 0.00 0.00 91 1014.4
20260502100138 0 36 1.6 3.2 0.00 0.00 0.00 90 1014.3
20260502091113 1 310 3.2 4.8 0.00 0.00 0.00 86 1014.5
20260502090609 1 36 4.8 4.8 0.00 0.00 0.00 86 1014.7
20260502090107 1 54 3.2 6.4 0.00 0.00 0.00 86 1014.6
20260502071504 3 318 3.2 3.2 0.00 0.00 0.00 77 1014.5
20260502071002 3 334 0.0 4.8 0.00 0.00 0.00 75 1014.4
20260502070500 3 348 4.8 4.8 0.00 0.00 0.00 76 1014.4
20260502065958 3 5 0.0 1.6 0.00 0.00 0.00 77 1014.6
20260502065456 3 326 1.6 3.2 0.00 0.00 0.00 77 1014.5
20260502064954 3 357 1.6 4.8 0.00 0.00 0.00 77 1014.7
20260502064452 3 351 1.6 1.6 0.00 0.00 0.00 78 1014.8
20260502063948 3 8 1.6 6.4 0.00 0.00 0.00 77 1014.7
20260502063446 3 11 4.8 9.7 0.00 0.00 0.00 77 1014.6
20260502062944 3 47 8.0 9.7 0.00 0.00 0.00 77 1014.8
20260502062441 3 15 3.2 4.8 0.00 0.00 0.00 78 1015.0
20260502061939 3 327 6.4 11.3 0.00 0.00 0.00 77 1015.1
20260502061437 3 359 9.7 12.9 0.00 0.00 0.00 77 1015.1
20260502060933 3 12 4.8 9.7 0.00 0.00 0.00 78 1015.2
20260502060428 3 3 3.2 4.8 0.00 0.00 0.00 79 1015.2
20260502055925 3 323 0.0 6.4 0.00 0.00 0.00 78 1015.0
20260502055423 3 84 4.8 12.9 0.00 0.00 0.00 78 1014.8
20260502054923 3 310 11.3 14.5 0.00 0.00 0.00 82 1014.8
20260502054420 3 49 6.4 11.3 0.00 0.00 0.00 83 1014.8
20260502053917 3 342 9.7 17.7 0.00 0.00 0.00 82 1014.8
20260502053414 3 80 6.4 12.9 0.00 0.00 0.00 82 1015.0
20260502052912 3 17 6.4 14.5 0.00 0.00 0.00 81 1015.0
20260502052410 4 16 8.0 12.9 0.00 0.00 0.00 80 1015.1
20260502051908 4 2 9.7 16.1 0.00 0.00 0.00 79 1014.8
20260502051406 4 51 14.5 22.5 0.00 0.00 0.00 78 1015.0
20260502050902 4 346 16.1 20.9 0.00 0.00 0.00 77 1014.7
20260502050359 4 41 9.7 16.1 0.00 0.00 0.00 81 1015.0
20260502045856 4 32 9.7 17.7 0.00 0.00 0.00 84 1014.7
20260502045352 4 335 6.4 20.9 0.00 0.00 0.00 84 1015.3
20260502044850 5 33 8.0 16.1 0.00 0.00 0.00 87 1015.1
20260502044345 5 25 6.4 14.5 0.00 0.00 0.00 87 1015.2
20260502043843 5 40 6.4 11.3 0.00 0.00 0.00 87 1015.1
20260502043341 5 65 9.7 17.7 0.00 0.00 0.00 87 1015.1
20260502042840 5 6 8.0 16.1 0.00 0.00 0.00 87 1015.3
20260502042337 5 21 4.8 14.5 0.00 0.00 0.00 87 1015.2
20260502041835 5 52 9.7 17.7 0.00 0.00 0.00 86 1015.2
20260502041332 5 352 6.4 11.3 0.00 0.00 0.00 86 1015.3
20260502040829 5 358 6.4 12.9 0.00 0.00 0.00 86 1015.2
20260502040326 5 345 3.2 12.9 0.00 0.00 0.00 86 1015.3
20260502035822 5 359 9.7 11.3 0.00 0.00 0.00 86 1015.0
20260502035319 5 27 6.4 9.7 0.00 0.00 0.00 86 1015.2
20260502034816 5 26 6.4 6.4 0.00 0.00 0.00 85 1015.2
20260502034314 5 47 6.4 9.7 0.00 0.00 0.00 85 1015.0
20260502033813 5 29 1.6 6.4 0.00 0.00 0.00 84 1015.3
20260502033310 5 305 8.0 9.7 0.00 0.00 0.00 84 1015.3
20260502032806 5 340 6.4 12.9 0.00 0.00 0.00 84 1015.2
20260502032305 5 26 6.4 11.3 0.00 0.00 0.00 83 1015.1
20260502031800 5 324 8.0 12.9 0.00 0.00 0.00 83 1015.1
20260502031258 5 38 8.0 12.9 0.00 0.00 0.00 83 1015.3
20260502030756 5 14 8.0 16.1 0.00 0.00 0.00 82 1015.3
20260502030254 5 14 4.8 17.7 0.00 0.00 0.00 81 1015.4
20260502025751 5 326 9.7 14.5 0.00 0.00 0.00 81 1015.3
20260502025249 5 308 6.4 11.3 0.00 0.00 0.00 80 1015.3
20260502024746 5 353 3.2 16.1 0.00 0.00 0.00 80 1015.2
20260502024244 5 65 4.8 11.3 0.00 0.00 0.00 80 1015.3
20260502023742 5 27 11.3 14.5 0.00 0.00 0.00 80 1015.0
20260502023239 5 349 12.9 22.5 0.00 0.00 0.00 80 1015.0
20260502022737 6 4 17.7 22.5 0.00 0.00 0.00 80 1014.8